This demonstration page uses our WeatherBlox Daily Observations layout. Learn more.

Left ArrowRight Arrow

38.88101, -77.10428

Hourly Observations for September 10, 2022

Temp ( °F °C ) Dew Point ( °F °C ) Humidity (%) Winds ( mph kmh ) Pressure ( in mb ) Visibility ( mi km ) Precip ( " mm )
12:52 am 00:52 Partly Cloudy 68 20 63 17.2 84 84 SSE 6 9 30.18 1022 10 16 0.00 0.00
1:52 am 01:52 Partly Cloudy 68 20 63 17.2 84 84 SSE 3 6 30.18 1022 10 16 0.00 0.00
2:52 am 02:52 Partly Cloudy 68 20 63 17.2 84 84 Calm 30.19 1022 10 16 0.00 0.00
3:52 am 03:52 Partly Cloudy 66 18.9 63 17.2 90 90 NE 7 11 30.19 1022 10 16 0.00 0.00
4:52 am 04:52 Mostly Clear 65 18.3 63 17.2 93 93 NE 7 11 30.19 1022 10 16 0.00 0.00
5:52 am 05:52 Partly Cloudy 66 18.9 63 17.2 90 90 NE 3 6 30.20 1023 10 16 0.00 0.00
6:52 am 06:52 Mostly Cloudy 65 18.3 62 16.7 90 90 NNE 5 7 30.21 1023 10 16 0.00 0.00
7:52 am 07:52 Mostly Cloudy 69 20.6 64 17.8 84 84 N 3 6 30.22 1024 10 16 0.00 0.00
8:52 am 08:52 Mostly Cloudy 71 21.7 65 18.3 81 81 NE 5 7 30.24 1024 10 16 0.00 0.00
9:52 am 09:52 Mostly Cloudy 76 24.4 66 18.9 71 71 ESE 8 13 30.24 1024 10 16 0.00 0.00
9:56 am 09:56 Mostly Cloudy 76 24.4 65 18.3 69 69 SE 5 7 30.25 1024 10 16 0.00 0.00
10:52 am 10:52 Mostly Cloudy 75 23.9 64 17.8 69 69 SE 3 6 30.25 1025 10 16 0.00 0.00
11:20 am 11:20 Mostly Cloudy 76 24.4 65 18.3 69 69 E 5 7 30.25 1024 10 16 0.00 0.00
11:52 am 11:52 Mostly Cloudy 77 25 64 17.8 64 64 Calm 30.24 1024 10 16 0.00 0.00
12:52 pm 12:52 Mostly Cloudy 79 26.1 65 18.3 62 62 VRB 3 6 30.23 1024 10 16 0.00 0.00
1:52 pm 13:52 Mostly Cloudy 81 27.2 65 18.3 58 58 Calm 30.22 1023 10 16 0.00 0.00
2:52 pm 14:52 Mostly Cloudy 81 27.2 64 17.8 57 57 Calm 30.22 1023 10 16 0.00 0.00
3:52 pm 15:52 Mostly Cloudy 82 27.8 65 18.3 56 56 ENE 7 11 30.20 1023 10 16 0.00 0.00
4:52 pm 16:52 Mostly Cloudy 80 26.7 65 18.3 60 60 ESE 6 9 30.18 1022 10 16 0.00 0.00
5:52 pm 17:52 Mostly Cloudy 80 26.7 64 17.8 58 58 ESE 8 13 30.18 1022 10 16 0.00 0.00
6:52 pm 18:52 Mostly Cloudy 79 26.1 64 17.8 60 60 SE 5 7 30.18 1022 10 16 0.00 0.00
7:52 pm 19:52 Cloudy 77 25 65 18.3 66 66 ESE 6 9 30.19 1022 10 16 0.00 0.00
8:52 pm 20:52 Cloudy with Light Rain 76 24.4 66 18.9 71 71 ESE 7 11 30.21 1023 9 14 0.01 0.13
9:52 pm 21:52 Cloudy 76 24.4 67 19.4 74 74 ESE 6 9 30.21 1023 10 16 0.01 0.13
10:52 pm 22:52 Cloudy 75 23.9 67 19.4 76 76 SE 5 7 30.20 1023 10 16 0.00 0.00
11:52 pm 23:52 Cloudy 75 23.9 68 20 79 79 Calm 30.20 1023 10 16 0.01 0.13

Powered by AerisWeather